00:00:07,7E5D7AE0,0,0,55,0,0,142
00:00:23,7E5D7CE0,0,0,56,0,0,142
00:00:39,7E5D7EE0,0,0,56,0,0,141
00:00:47,7E5D7FE0,0,0,56,0,0,141
00:00:55,7E5D80E0,0,0,54,0,0,141
00:01:11,7E5D82E0,0,0,54,0,0,141
00:01:27,7E5D84E0,0,0,51,0,0,141
00:01:43,7E5D86E0,0,0,51,0,0,142
00:01:51,7E5D87E0,0,0,51,0,0,142
00:01:59,7E5D88E0,0,0,52,0,0,143
00:02:15,7E5D8AE0,0,0,52,0,0,143
00:02:31,7E5D8CE0,0,0,55,0,0,143
00:02:47,7E5D8EE0,0,0,55,0,0,144
00:03:03,7E5D90E0,0,0,49,0,0,144
00:03:19,7E5D92E0,0,0,49,0,0,144
00:03:35,7E5D94E0,0,0,47,0,0,145
00:03:51,7E5D96E0,0,0,47,0,0,145
00:03:59,7E5D97E0,0,0,47,0,0,145
00:04:07,7E5D98E0,0,0,52,0,0,145
00:04:23,7E5D9AE0,0,0,52,0,0,146
00:04:39,7E5D9CE0,0,0,47,0,0,146
00:04:55,7E5D9EE0,0,0,47,0,0,146
00:05:03,7E5D9FE0,0,0,47,0,0,146
00:05:11,7E5DA0E0,0,0,53,0,0,146
00:05:27,7E5DA2E0,0,0,53,0,0,145
00:05:43,7E5DA4E0,0,0,55,0,0,144
00:05:59,7E5DA6E0,0,0,55,0,0,144
00:06:07,7E5DA7E0,0,0,55,0,0,143
00:06:15,7E5DA8E0,0,0,50,0,0,143
00:06:31,7E5DAAE0,0,0,50,0,0,143
00:06:47,7E5DACE0,0,0,50,0,0,142
00:07:03,7E5DAEE0,0,0,50,0,0,141
00:07:19,7E5DB0E0,0,0,51,0,0,141
00:07:35,7E5DB2E0,0,0,51,0,0,141
00:07:51,7E5DB4E0,0,0,51,0,0,141
00:08:07,7E5DB6E0,0,0,51,0,0,142
00:08:15,7E5DB7E0,0,0,51,0,0,142
00:08:23,7E5DB8E0,0,0,49,0,0,143
00:08:39,7E5DBAE0,0,0,49,0,0,143
00:08:55,7E5DBCE0,0,0,51,0,0,143
00:09:11,7E5DBEE0,0,0,51,0,0,144
00:09:19,7E5DBFE0,0,0,51,0,0,144
00:09:27,7E5DC0E0,0,0,51,0,0,144
00:09:43,7E5DC2E0,0,0,51,0,0,144
00:09:59,7E5DC4E0,0,0,46,0,0,145
00:10:15,7E5DC6E0,0,0,46,0,0,145
00:10:23,7E5DC7E0,0,0,46,0,0,145
00:10:31,7E5DC8E0,0,0,51,0,0,145
00:10:47,7E5DCAE0,0,0,51,0,0,146
00:11:03,7E5DCCE0,0,0,47,0,0,146
00:11:19,7E5DCEE0,0,0,47,0,0,146
00:11:35,7E5DD0E0,0,0,53,0,0,145
00:11:51,7E5DD2E0,0,0,53,0,0,144
00:12:07,7E5DD4E0,0,0,51,0,0,144
00:12:23,7E5DD6E0,0,0,51,0,0,143
00:12:31,7E5DD7E0,0,0,51,0,0,143
00:12:39,7E5DD8E0,0,0,54,0,0,143
00:12:55,7E5DDAE0,0,0,54,0,0,142
00:13:11,7E5DDCE0,0,0,55,0,0,142
00:13:27,7E5DDEE0,0,0,55,0,0,141
00:13:35,7E5DDFE0,0,0,55,0,0,141
00:13:43,7E5DE0E0,0,0,48,0,0,141
00:13:59,7E5DE2E0,0,0,48,0,0,141
00:14:15,7E5DE4E0,0,0,46,0,0,142
00:14:31,7E5DE6E0,0,0,46,0,0,142
00:14:39,7E5DE7E0,0,0,46,0,0,143
00:14:47,7E5DE8E0,0,0,51,0,0,143
00:15:03,7E5DEAE0,0,0,51,0,0,143
00:15:19,7E5DECE0,0,0,49,0,0,144
00:15:35,7E5DEEE0,0,0,49,0,0,144
00:15:51,7E5DF0E0,0,0,48,0,0,144
00:16:07,7E5DF2E0,0,0,48,0,0,144
00:16:23,7E5DF4E0,0,0,51,0,0,145
00:16:39,7E5DF6E0,0,0,51,0,0,145
00:16:47,7E5DF7E0,0,0,51,0,0,145
00:16:55,7E5DF8E0,0,0,48,0,0,146
00:17:11,7E5DFAE0,0,0,48,0,0,146
00:17:27,7E5DFCE0,0,0,56,0,0,146
00:17:43,7E5DFEE0,0,0,56,0,0,146
00:17:51,7E5DFFE0,0,0,56,0,0,145
00:17:59,7E5E00E0,0,0,51,0,0,145
00:18:15,7E5E02E0,0,0,51,0,0,144
00:18:31,7E5E04E0,0,0,48,0,0,144
00:18:47,7E5E06E0,0,0,48,0,0,143
00:18:55,7E5E07E0,0,0,48,0,0,143
00:19:03,7E5E08E0,0,0,49,0,0,143
00:19:19,7E5E0AE0,0,0,49,0,0,142
00:19:35,7E5E0CE0,0,0,49,0,0,141
00:19:51,7E5E0EE0,0,0,49,0,0,141
00:20:07,7E5E10E0,0,0,49,0,0,141
00:20:23,7E5E12E0,0,0,49,0,0,141
00:20:39,7E5E14E0,0,0,52,0,0,142
00:20:55,7E5E16E0,0,0,52,0,0,142
00:21:03,7E5E17E0,0,0,52,0,0,143
00:21:11,7E5E18E0,0,0,48,0,0,143
00:21:27,7E5E1AE0,0,0,48,0,0,143
00:21:43,7E5E1CE0,0,0,50,0,0,144
00:21:59,7E5E1EE0,0,0,50,0,0,144
00:22:07,7E5E1FE0,0,0,50,0,0,144
00:22:15,7E5E20E0,0,0,49,0,0,144
00:22:31,7E5E22E0,0,0,49,0,0,145
00:22:47,7E5E24E0,0,0,52,0,0,145
00:23:03,7E5E26E0,0,0,52,0,0,145
00:23:11,7E5E27E0,0,0,52,0,0,146
00:23:19,7E5E28E0,0,0,47,0,0,146
00:23:35,7E5E2AE0,0,0,47,0,0,146
00:23:51,7E5E2CE0,0,0,46,0,0,146
00:24:07,7E5E2EE0,0,0,46,0,0,145
00:24:23,7E5E30E0,0,0,53,0,0,145
00:24:39,7E5E32E0,0,0,53,0,0,144
00:24:55,7E5E34E0,0,0,51,0,0,143
00:25:11,7E5E36E0,0,0,51,0,0,143
00:25:19,7E5E37E0,0,0,51,0,0,143
00:25:27,7E5E38E0,0,0,54,0,0,142
00:25:43,7E5E3AE0,0,0,54,0,0,142
00:25:59,7E5E3CE0,0,0,46,0,0,141
00:26:15,7E5E3EE0,0,0,46,0,0,141
00:26:23,7E5E3FE0,0,0,46,0,0,141
00:26:31,7E5E40E0,0,0,50,0,0,141
00:26:47,7E5E42E0,0,0,50,0,0,141
00:27:03,7E5E44E0,0,0,54,0,0,142
00:27:19,7E5E46E0,0,0,54,0,0,143
00:27:27,7E5E47E0,0,0,54,0,0,143
00:27:35,7E5E48E0,0,0,50,0,0,143
00:27:51,7E5E4AE0,0,0,50,0,0,144
00:28:07,7E5E4CE0,0,0,50,0,0,144
00:28:23,7E5E4EE0,0,0,50,0,0,144
00:28:39,7E5E50E0,0,0,53,0,0,144
00:28:55,7E5E52E0,0,0,53,0,0,145
00:29:11,7E5E54E0,0,0,54,0,0,145
00:29:27,7E5E56E0,0,0,54,0,0,145
00:29:35,7E5E57E0,0,0,54,0,0,146
00:29:43,7E5E58E0,0,0,53,0,0,146
00:29:59,7E5E5AE0,0,0,53,0,0,146
00:30:15,7E5E5CE0,0,0,55,0,0,146
00:30:31,7E5E5EE0,0,0,55,0,0,145
00:30:39,7E5E5FE0,0,0,55,0,0,145
00:30:47,7E5E60E0,0,0,46,0,0,144
00:31:03,7E5E62E0,0,0,46,0,0,144
00:31:19,7E5E64E0,0,0,55,0,0,143
00:31:35,7E5E66E0,0,0,55,0,0,142
00:31:43,7E5E67E0,0,0,55,0,0,142
00:31:51,7E5E68E0,0,0,51,0,0,142
00:32:07,7E5E6AE0,0,0,51,0,0,141
00:32:23,7E5E6CE0,0,0,48,0,0,141
00:32:39,7E5E6EE0,0,0,48,0,0,141
00:32:55,7E5E70E0,0,0,48,0,0,141
00:33:11,7E5E72E0,0,0,48,0,0,142
00:33:27,7E5E74E0,0,0,49,0,0,142
00:33:43,7E5E76E0,0,0,49,0,0,143
00:33:51,7E5E77E0,0,0,49,0,0,143
00:33:59,7E5E78E0,0,0,47,0,0,143
00:34:15,7E5E7AE0,0,0,47,0,0,144
00:34:31,7E5E7CE0,0,0,51,0,0,144
00:34:47,7E5E7EE0,0,0,51,0,0,144
00:34:55,7E5E7FE0,0,0,51,0,0,145
00:35:03,7E5E80E0,0,0,50,0,0,145
00:35:19,7E5E82E0,0,0,50,0,0,145
00:35:35,7E5E84E0,0,0,54,0,0,145
00:35:51,7E5E86E0,0,0,54,0,0,145
00:35:59,7E5E87E0,0,0,54,0,0,146
00:36:07,7E5E88E0,0,0,52,0,0,146
00:36:23,7E5E8AE0,0,0,52,0,0,146
00:36:39,7E5E8CE0,0,0,48,0,0,146
00:36:55,7E5E8EE0,0,0,48,0,0,145
00:37:11,7E5E90E0,0,0,55,0,0,144
00:37:27,7E5E92E0,0,0,55,0,0,144
00:37:43,7E5E94E0,0,0,52,0,0,143
00:37:59,7E5E96E0,0,0,52,0,0,142
00:38:07,7E5E97E0,0,0,52,0,0,142
00:38:15,7E5E98E0,0,0,46,0,0,142
00:38:31,7E5E9AE0,0,0,46,0,0,141
00:38:47,7E5E9CE0,0,0,47,0,0,141
00:39:03,7E5E9EE0,0,0,47,0,0,141
00:39:11,7E5E9FE0,0,0,47,0,0,141
00:39:19,7E5EA0E0,0,0,47,0,0,142
00:39:35,7E5EA2E0,0,0,47,0,0,142
00:39:51,7E5EA4E0,0,0,50,0,0,142
00:40:07,7E5EA6E0,0,0,50,0,0,143
00:40:15,7E5EA7E0,0,0,50,0,0,143
00:40:23,7E5EA8E0,0,0,56,0,0,143
00:40:39,7E5EAAE0,0,0,56,0,0,144
00:40:55,7E5EACE0,0,0,52,1,0,144
00:41:11,7E5EAEE0,0,0,52,1,0,145
00:41:27,7E5EB0E0,0,0,48,0,0,145
00:41:43,7E5EB2E0,0,0,48,0,0,145
00:41:59,7E5EB4E0,0,0,49,1,0,145
00:42:15,7E5EB6E0,0,0,49,1,0,145
00:42:23,7E5EB7E0,0,0,49,1,0,146
00:42:31,7E5EB8E0,0,0,48,0,0,146
00:42:47,7E5EBAE0,0,0,48,0,0,146
00:43:03,7E5EBCE0,0,0,53,0,0,146
00:43:19,7E5EBEE0,0,0,53,0,0,145
00:43:27,7E5EBFE0,0,0,53,0,0,145
00:43:35,7E5EC0E0,0,0,56,0,0,144
00:43:51,7E5EC2E0,0,0,56,0,0,143
00:44:07,7E5EC4E0,0,0,48,0,0,143
00:44:23,7E5EC6E0,0,0,48,0,0,142
00:44:31,7E5EC7E0,0,0,48,0,0,142
00:44:39,7E5EC8E0,0,0,56,0,0,141
00:44:55,7E5ECAE0,0,0,56,0,0,141
00:45:11,7E5ECCE0,0,0,49,1,0,141
00:45:27,7E5ECEE0,0,0,49,1,0,141
00:45:43,7E5ED0E0,0,0,52,0,0,142
00:45:59,7E5ED2E0,0,0,52,0,0,142
00:46:15,7E5ED4E0,0,0,53,0,0,143
00:46:31,7E5ED6E0,0,0,53,0,0,143
00:46:39,7E5ED7E0,0,0,53,0,0,143
00:46:47,7E5ED8E0,0,0,49,0,0,143
00:47:03,7E5EDAE0,0,0,49,0,0,144
00:47:19,7E5EDCE0,0,0,54,0,0,144
00:47:35,7E5EDEE0,0,0,54,0,0,145
00:47:43,7E5EDFE0,0,0,54,0,0,145
00:47:51,7E5EE0E0,0,0,52,0,0,145
00:48:07,7E5EE2E0,0,0,52,0,0,145
00:48:23,7E5EE4E0,0,0,47,0,0,145
00:48:39,7E5EE6E0,0,0,47,0,0,146
00:48:47,7E5EE7E0,0,0,47,0,0,146
00:48:55,7E5EE8E0,0,0,52,0,0,146
00:49:11,7E5EEAE0,0,0,52,0,0,146
00:49:27,7E5EECE0,0,0,52,0,0,145
00:49:43,7E5EEEE0,0,0,52,0,0,145
00:49:59,7E5EF0E0,0,0,47,0,0,144
00:50:15,7E5EF2E0,0,0,47,0,0,143
00:50:31,7E5EF4E0,0,0,48,0,0,143
00:50:47,7E5EF6E0,0,0,48,0,0,142
00:50:55,7E5EF7E0,0,0,48,0,0,142
00:51:03,7E5EF8E0,0,0,54,0,0,141
00:51:19,7E5EFAE0,0,0,54,0,0,141
00:51:35,7E5EFCE0,0,0,50,0,0,141
00:51:51,7E5EFEE0,0,0,50,0,0,141
00:51:59,7E5EFFE0,0,0,50,0,0,142
00:52:07,7E5F00E0,0,0,52,0,0,142
00:52:23,7E5F02E0,0,0,52,0,0,142
00:52:39,7E5F04E0,0,0,52,0,0,143
00:52:55,7E5F06E0,0,0,52,0,0,143
00:53:03,7E5F07E0,0,0,52,0,0,143
00:53:11,7E5F08E0,0,0,55,0,0,143
00:53:27,7E5F0AE0,0,0,55,0,0,144
00:53:43,7E5F0CE0,0,0,50,0,0,144
00:53:59,7E5F0EE0,0,0,50,0,0,145
00:54:15,7E5F10E0,0,0,52,0,0,145
00:54:31,7E5F12E0,0,0,52,0,0,145
00:54:47,7E5F14E0,0,0,47,0,0,145
00:55:03,7E5F16E0,0,0,47,0,0,146
00:55:11,7E5F17E0,0,0,47,0,0,146
00:55:19,7E5F18E0,0,0,46,0,0,146
00:55:35,7E5F1AE0,0,0,46,0,0,145
00:55:51,7E5F1CE0,0,0,50,0,0,145
00:56:07,7E5F1EE0,0,0,50,0,0,144
00:56:15,7E5F1FE0,0,0,50,0,0,144
00:56:23,7E5F20E0,0,0,46,0,0,144
00:56:39,7E5F22E0,0,0,46,0,0,143
00:56:55,7E5F24E0,0,0,48,0,0,142
00:57:11,7E5F26E0,0,0,48,0,0,142
00:57:19,7E5F27E0,0,0,48,0,0,141
00:57:27,7E5F28E0,0,0,54,0,0,141
00:57:43,7E5F2AE0,0,0,54,0,0,141
00:57:59,7E5F2CE0,0,0,55,0,0,141
00:58:15,7E5F2EE0,0,0,55,0,0,142
00:58:31,7E5F30E0,0,0,53,0,0,142
00:58:47,7E5F32E0,0,0,53,0,0,143
00:59:03,7E5F34E0,0,0,50,1,1,143
00:59:19,7E5F36E0,0,0,50,1,1,143
00:59:27,7E5F37E0,0,0,50,1,1,143
00:59:35,7E5F38E0,0,0,54,0,0,144
00:59:51,7E5F3AE0,0,0,54,0,0,144
01:00:07,7E5F3CE0,0,0,56,0,0,144
01:00:23,7E5F3EE0,0,0,56,0,0,145
01:00:31,7E5F3FE0,0,0,56,0,0,145
01:00:39,7E5F40E0,0,0,52,0,0,145
01:00:55,7E5F42E0,0,0,52,0,0,145
01:01:11,7E5F44E0,0,0,54,0,0,146
01:01:27,7E5F46E0,0,0,54,0,0,146
01:01:35,7E5F47E0,0,0,54,0,0,146
01:01:43,7E5F48E0,0,0,54,0,0,146
01:01:59,7E5F4AE0,0,0,54,0,0,145
01:02:15,7E5F4CE0,0,0,46,0,0,144
01:02:31,7E5F4EE0,0,0,46,0,0,144
01:02:47,7E5F50E0,0,0,56,0,0,143
01:03:03,7E5F52E0,0,0,56,0,0,143
01:03:19,7E5F54E0,0,0,51,0,0,142
01:03:35,7E5F56E0,0,0,51,0,0,141
01:03:43,7E5F57E0,0,0,51,0,0,141
01:03:51,7E5F58E0,0,0,55,0,0,141
01:04:07,7E5F5AE0,0,0,55,0,0,141
01:04:23,7E5F5CE0,0,0,52,0,0,141
01:04:39,7E5F5EE0,0,0,52,0,0,142
01:04:47,7E5F5FE0,0,0,52,0,0,142
01:04:55,7E5F60E0,0,0,47,0,0,143
01:05:11,7E5F62E0,0,0,47,0,0,143
01:05:27,7E5F64E0,0,0,50,0,0,143
01:05:43,7E5F66E0,0,0,50,0,0,144
01:05:51,7E5F67E0,0,0,50,0,0,144
01:05:59,7E5F68E0,0,0,46,0,0,144
01:06:15,7E5F6AE0,0,0,46,0,0,144
01:06:31,7E5F6CE0,0,0,46,0,0,145
01:06:47,7E5F6EE0,0,0,46,0,0,145
01:07:03,7E5F70E0,0,0,48,0,0,145
01:07:19,7E5F72E0,0,0,48,0,0,146
01:07:35,7E5F74E0,0,0,51,0,0,146
01:07:51,7E5F76E0,0,0,51,0,0,146
01:07:59,7E5F77E0,0,0,51,0,0,145
01:08:07,7E5F78E0,0,0,54,0,0,145
01:08:23,7E5F7AE0,0,0,54,0,0,144
01:08:39,7E5F7CE0,0,0,53,0,0,144
01:08:55,7E5F7EE0,0,0,53,0,0,143
01:09:03,7E5F7FE0,0,0,53,0,0,143
01:09:11,7E5F80E0,0,0,50,0,0,143
01:09:27,7E5F82E0,0,0,50,0,0,142
01:09:43,7E5F84E0,0,0,55,0,0,141
01:09:59,7E5F86E0,0,0,55,0,0,141
01:10:07,7E5F87E0,0,0,55,0,0,141
01:10:15,7E5F88E0,0,0,54,0,0,141
01:10:31,7E5F8AE0,0,0,54,0,0,141
01:10:47,7E5F8CE0,0,0,47,0,1,142
01:11:03,7E5F8EE0,0,0,47,0,1,142
01:11:19,7E5F90E0,0,0,50,0,0,143
01:11:35,7E5F92E0,0,0,50,0,0,143
01:11:51,7E5F94E0,0,0,54,0,0,144
01:12:07,7E5F96E0,0,0,54,0,0,144
01:12:15,7E5F97E0,0,0,54,0,0,144
01:12:23,7E5F98E0,0,0,56,0,0,144
01:12:39,7E5F9AE0,0,0,56,0,0,144
01:12:55,7E5F9CE0,0,0,54,0,0,145
01:13:11,7E5F9EE0,0,0,54,0,0,145
01:13:19,7E5F9FE0,0,0,54,0,0,145
01:13:27,7E5FA0E0,0,0,51,0,0,146
01:13:43,7E5FA2E0,0,0,51,0,0,146
01:13:59,7E5FA4E0,0,0,46,0,0,146
01:14:15,7E5FA6E0,0,0,46,0,0,145
01:14:23,7E5FA7E0,0,0,46,0,0,145
01:14:31,7E5FA8E0,0,0,51,0,0,145
01:14:47,7E5FAAE0,0,0,51,0,0,144
01:15:03,7E5FACE0,0,0,47,0,0,143
01:15:19,7E5FAEE0,0,0,47,0,0,143
01:15:35,7E5FB0E0,0,0,49,0,0,142
01:15:51,7E5FB2E0,0,0,49,0,0,142
01:16:07,7E5FB4E0,0,0,49,0,0,141
01:16:23,7E5FB6E0,0,0,49,0,0,141
01:16:31,7E5FB7E0,0,0,49,0,0,141
01:16:39,7E5FB8E0,0,0,51,0,0,141
01:16:55,7E5FBAE0,0,0,51,0,0,141
01:17:11,7E5FBCE0,0,0,49,0,0,142
01:17:27,7E5FBEE0,0,0,49,0,0,143
01:17:35,7E5FBFE0,0,0,49,0,0,143
01:17:43,7E5FC0E0,0,0,53,0,0,143
01:17:59,7E5FC2E0,0,0,53,0,0,144
01:18:15,7E5FC4E0,0,0,48,0,0,144
01:18:31,7E5FC6E0,0,0,48,0,0,144
01:18:39,7E5FC7E0,0,0,48,0,0,144
01:18:47,7E5FC8E0,0,0,49,0,0,144
01:19:03,7E5FCAE0,0,0,49,0,0,145
01:19:19,7E5FCCE0,0,0,50,0,0,145
01:19:35,7E5FCEE0,0,0,50,0,0,146
01:19:51,7E5FD0E0,0,0,46,0,0,146
01:20:07,7E5FD2E0,0,0,46,0,0,146
01:20:23,7E5FD4E0,0,0,52,0,0,146
01:20:39,7E5FD6E0,0,0,52,0,0,145
01:20:47,7E5FD7E0,0,0,52,0,0,145
01:20:55,7E5FD8E0,0,0,47,0,0,144
01:21:11,7E5FDAE0,0,0,47,0,0,144
01:21:27,7E5FDCE0,0,0,55,0,0,143
01:21:43,7E5FDEE0,0,0,55,0,0,143
01:21:51,7E5FDFE0,0,0,55,0,0,142
01:21:59,7E5FE0E0,0,0,54,0,0,142
01:22:15,7E5FE2E0,0,0,54,0,0,142
01:22:31,7E5FE4E0,0,0,50,0,0,141
01:22:47,7E5FE6E0,0,0,50,0,0,141
01:22:55,7E5FE7E0,0,0,50,0,0,141
01:23:03,7E5FE8E0,0,0,53,0,0,141
01:23:19,7E5FEAE0,0,0,53,0,0,142
01:23:35,7E5FECE0,0,0,53,0,0,142
01:23:51,7E5FEEE0,0,0,53,0,0,143
01:24:07,7E5FF0E0,0,0,55,0,0,143
01:24:23,7E5FF2E0,0,0,55,0,0,144
01:24:39,7E5FF4E0,0,0,51,0,0,144
01:24:55,7E5FF6E0,0,0,51,0,0,144
01:25:03,7E5FF7E0,0,0,51,0,0,144
01:25:11,7E5FF8E0,0,0,54,0,1,145
01:25:27,7E5FFAE0,0,0,54,0,1,145
01:25:43,7E5FFCE0,0,0,47,0,0,145
01:25:59,7E5FFEE0,0,0,47,0,0,146
01:26:07,7E5FFFE0,0,0,47,0,0,146
01:26:15,7E6000E0,0,0,48,0,0,146
01:26:31,7E6002E0,0,0,48,0,0,146
01:26:47,7E6004E0,0,0,54,0,0,146
01:27:03,7E6006E0,0,0,54,0,0,145
01:27:11,7E6007E0,0,0,54,0,0,145
01:27:19,7E6008E0,0,0,49,0,0,144
01:27:35,7E600AE0,0,0,49,0,0,143
01:27:51,7E600CE0,0,0,52,0,0,143
01:28:07,7E600EE0,0,0,52,0,0,142
01:28:23,7E6010E0,0,0,48,0,0,142
01:28:39,7E6012E0,0,0,48,0,0,141
01:28:55,7E6014E0,0,0,54,0,0,141
01:29:11,7E6016E0,0,0,54,0,0,141
01:29:19,7E6017E0,0,0,54,0,0,141
01:29:27,7E6018E0,0,0,55,0,0,141
01:29:43,7E601AE0,0,0,55,0,0,142
01:29:59,7E601CE0,0,0,46,0,0,142
01:30:15,7E601EE0,0,0,46,0,0,143
01:30:23,7E601FE0,0,0,46,0,0,143
01:30:31,7E6020E0,0,0,53,0,0,143
01:30:47,7E6022E0,0,0,53,0,0,144
01:31:03,7E6024E0,0,0,55,0,0,144
01:31:19,7E6026E0,0,0,55,0,0,144
01:31:27,7E6027E0,0,0,55,0,0,145
01:31:35,7E6028E0,0,0,50,0,0,145
01:31:51,7E602AE0,0,0,50,0,0,145
01:32:07,7E602CE0,0,0,47,0,0,145
01:32:23,7E602EE0,0,0,47,0,0,146
01:32:39,7E6030E0,0,0,49,0,0,146
01:32:55,7E6032E0,0,0,49,0,0,146
01:33:11,7E6034E0,0,0,46,0,0,145
01:33:27,7E6036E0,0,0,46,0,0,144
01:33:35,7E6037E0,0,0,46,0,0,144
01:33:43,7E6038E0,0,0,46,0,0,144
01:33:59,7E603AE0,0,0,46,0,0,143
01:34:15,7E603CE0,0,0,46,0,0,142
01:34:31,7E603EE0,0,0,46,0,0,142
01:34:39,7E603FE0,0,0,46,0,0,141
01:34:47,7E6040E0,0,0,48,0,0,141
01:35:03,7E6042E0,0,0,48,0,0,141
01:35:19,7E6044E0,0,0,55,0,0,141
01:35:35,7E6046E0,0,0,55,0,0,141
01:35:43,7E6047E0,0,0,55,0,0,142
01:35:51,7E6048E0,0,0,55,0,0,142
01:36:07,7E604AE0,0,0,55,0,0,142
01:36:23,7E604CE0,0,0,52,0,0,143
01:36:39,7E604EE0,0,0,52,0,0,143
01:36:55,7E6050E0,0,0,55,0,0,144
01:37:11,7E6052E0,0,0,55,0,0,144
01:37:27,7E6054E0,0,0,54,0,0,144
01:37:43,7E6056E0,0,0,54,0,0,145
01:37:51,7E6057E0,0,0,54,0,0,145
01:37:59,7E6058E0,0,0,50,0,0,145
01:38:15,7E605AE0,0,0,50,0,0,145
01:38:31,7E605CE0,0,0,54,0,0,145
01:38:47,7E605EE0,0,0,54,0,0,146
01:38:55,7E605FE0,0,0,54,0,0,146
01:39:03,7E6060E0,0,0,48,0,0,146
01:39:19,7E6062E0,0,0,48,0,0,146
01:39:35,7E6064E0,0,0,50,0,0,145
01:39:51,7E6066E0,0,0,50,0,0,144
01:39:59,7E6067E0,0,0,50,0,0,144
01:40:07,7E6068E0,0,0,47,0,0,144
01:40:23,7E606AE0,0,0,47,0,0,143
01:40:39,7E606CE0,0,0,55,0,0,142
01:40:55,7E606EE0,0,0,55,0,0,142
01:41:11,7E6070E0,0,0,54,0,0,141
01:41:27,7E6072E0,0,0,54,0,0,141
01:41:43,7E6074E0,0,0,55,0,0,141
01:41:59,7E6076E0,0,0,55,0,0,142
01:42:07,7E6077E0,0,0,55,0,0,142
01:42:15,7E6078E0,0,0,52,1,0,142
01:42:31,7E607AE0,0,0,52,1,0,143
01:42:47,7E607CE0,0,0,46,0,0,143
01:43:03,7E607EE0,0,0,46,0,0,143
01:43:11,7E607FE0,0,0,46,0,0,143
01:43:19,7E6080E0,0,0,54,0,0,144
01:43:35,7E6082E0,0,0,54,0,0,144
01:43:51,7E6084E0,0,0,48,0,0,145
01:44:07,7E6086E0,0,0,48,0,0,145
01:44:15,7E6087E0,0,0,48,0,0,145
01:44:23,7E6088E0,0,0,51,0,0,145
01:44:39,7E608AE0,0,0,51,0,0,145
01:44:55,7E608CE0,0,0,54,0,0,146
01:45:11,7E608EE0,0,0,54,0,0,146
01:45:27,7E6090E0,0,0,55,0,0,146
01:45:43,7E6092E0,0,0,55,0,0,145
01:45:59,7E6094E0,0,0,49,0,0,145
01:46:15,7E6096E0,0,0,49,0,0,144
01:46:23,7E6097E0,0,0,49,0,0,144
01:46:31,7E6098E0,0,0,55,0,0,143
01:46:47,7E609AE0,0,0,55,0,0,143
01:47:03,7E609CE0,0,0,51,0,0,142
01:47:19,7E609EE0,0,0,51,0,0,141
01:47:27,7E609FE0,0,0,51,0,0,141
01:47:35,7E60A0E0,0,0,51,0,0,141
01:47:51,7E60A2E0,0,0,51,0,0,141
01:48:07,7E60A4E0,0,0,47,0,0,141
01:48:23,7E60A6E0,0,0,47,0,0,142
01:48:31,7E60A7E0,0,0,47,0,0,142
01:48:39,7E60A8E0,0,0,50,0,0,142
01:48:55,7E60AAE0,0,0,50,0,0,143
01:49:11,7E60ACE0,0,0,51,0,0,143
01:49:27,7E60AEE0,0,0,51,0,0,143
01:49:43,7E60B0E0,0,0,47,0,0,144
01:49:59,7E60B2E0,0,0,47,0,0,144
01:50:15,7E60B4E0,0,0,53,0,0,144
01:50:31,7E60B6E0,0,0,53,0,0,145
01:50:39,7E60B7E0,0,0,53,0,0,145
01:50:47,7E60B8E0,0,0,49,0,0,145
01:51:03,7E60BAE0,0,0,49,0,0,145
01:51:19,7E60BCE0,0,0,56,0,0,146
01:51:35,7E60BEE0,0,0,56,0,0,146
01:51:43,7E60BFE0,0,0,56,0,0,146
01:51:51,7E60C0E0,0,0,47,0,0,146
01:52:07,7E60C2E0,0,0,47,0,0,145
01:52:23,7E60C4E0,0,0,53,0,0,145
01:52:39,7E60C6E0,0,0,53,0,0,144
01:52:47,7E60C7E0,0,0,53,0,0,144
01:52:55,7E60C8E0,0,0,47,0,0,144
01:53:11,7E60CAE0,0,0,47,0,0,143
01:53:27,7E60CCE0,0,0,54,0,0,142
01:53:43,7E60CEE0,0,0,54,0,0,142
01:53:59,7E60D0E0,0,0,52,0,0,141
01:54:15,7E60D2E0,0,0,52,0,0,141
01:54:31,7E60D4E0,0,0,50,0,0,141
01:54:47,7E60D6E0,0,0,50,0,0,142
01:54:55,7E60D7E0,0,0,50,0,0,142
01:55:03,7E60D8E0,0,0,56,0,0,142
01:55:19,7E60DAE0,0,0,56,0,0,143
01:55:35,7E60DCE0,0,0,52,0,0,143
01:55:51,7E60DEE0,0,0,52,0,0,143
01:55:59,7E60DFE0,0,0,52,0,0,144
01:56:07,7E60E0E0,0,0,55,0,0,144
01:56:23,7E60E2E0,0,0,55,0,0,144
01:56:39,7E60E4E0,0,0,50,0,0,144
01:56:55,7E60E6E0,0,0,50,0,0,145
01:57:03,7E60E7E0,0,0,50,0,0,145
01:57:11,7E60E8E0,0,0,51,0,0,145
01:57:27,7E60EAE0,0,0,51,0,0,146
01:57:43,7E60ECE0,0,0,49,0,0,146
01:57:59,7E60EEE0,0,0,49,0,0,146
01:58:15,7E60F0E0,0,0,47,0,0,146
01:58:31,7E60F2E0,0,0,47,0,0,145
01:58:47,7E60F4E0,0,0,53,0,0,145
01:59:03,7E60F6E0,0,0,53,0,0,144
01:59:11,7E60F7E0,0,0,53,0,0,144
01:59:19,7E60F8E0,0,0,53,0,0,144
01:59:35,7E60FAE0,0,0,53,0,0,143
01:59:51,7E60FCE0,0,0,53,0,0,142
02:00:07,7E60FEE0,0,0,53,0,0,142
02:00:15,7E60FFE0,0,0,53,0,0,141
02:00:23,7E6100E0,0,0,56,0,0,141
02:00:39,7E6102E0,0,0,56,0,0,141
02:00:55,7E6104E0,0,0,52,0,0,141
02:01:11,7E6106E0,0,0,52,0,0,141
02:01:19,7E6107E0,0,0,52,0,0,142
02:01:27,7E6108E0,0,0,49,0,0,142
02:01:43,7E610AE0,0,0,49,0,0,142
02:01:59,7E610CE0,0,0,50,0,0,143
02:02:15,7E610EE0,0,0,50,0,0,143
02:02:31,7E6110E0,0,0,50,0,0,144
02:02:47,7E6112E0,0,0,50,0,0,144
02:03:03,7E6114E0,0,0,51,0,0,144
02:03:19,7E6116E0,0,0,51,0,0,145
02:03:27,7E6117E0,0,0,51,0,0,145
02:03:35,7E6118E0,0,0,55,0,0,145
02:03:51,7E611AE0,0,0,55,0,0,145
02:04:07,7E611CE0,0,0,50,0,0,146
02:04:23,7E611EE0,0,0,50,0,0,146
02:04:31,7E611FE0,0,0,50,0,0,146
02:04:39,7E6120E0,0,0,55,0,0,146
02:04:55,7E6122E0,0,0,55,0,0,146
02:05:11,7E6124E0,0,0,54,0,0,145
02:05:27,7E6126E0,0,0,54,0,0,144
02:05:35,7E6127E0,0,0,54,0,0,144
02:05:43,7E6128E0,0,0,56,0,0,144
02:05:59,7E612AE0,0,0,56,0,0,143
02:06:15,7E612CE0,0,0,55,0,0,143
02:06:31,7E612EE0,0,0,55,0,0,142
02:06:47,7E6130E0,0,0,50,0,0,141
02:07:03,7E6132E0,0,0,50,0,0,141
02:07:19,7E6134E0,0,0,56,0,0,141
02:07:35,7E6136E0,0,0,56,0,0,141
02:07:43,7E6137E0,0,0,56,0,0,141
02:07:51,7E6138E0,0,0,49,0,0,142
02:08:07,7E613AE0,0,0,49,0,0,142
02:08:23,7E613CE0,0,0,48,0,0,143
02:08:39,7E613EE0,0,0,48,0,0,143
02:08:47,7E613FE0,0,0,48,0,0,143
02:08:55,7E6140E0,0,0,50,0,0,144
02:09:11,7E6142E0,0,0,50,0,0,144
02:09:27,7E6144E0,0,0,53,0,0,144
02:09:43,7E6146E0,0,0,53,0,0,144
02:09:51,7E6147E0,0,0,53,0,0,145
02:09:59,7E6148E0,0,0,52,0,0,145
02:10:15,7E614AE0,0,0,52,0,0,145
02:10:31,7E614CE0,0,0,52,0,0,146
02:10:47,7E614EE0,0,0,52,0,0,146
02:11:03,7E6150E0,0,0,48,0,0,146
02:11:19,7E6152E0,0,0,48,0,0,146
02:11:35,7E6154E0,0,0,56,0,0,145
02:11:51,7E6156E0,0,0,56,0,0,144
02:11:59,7E6157E0,0,0,56,0,0,144
02:12:07,7E6158E0,0,0,52,0,0,144
02:12:23,7E615AE0,0,0,52,0,0,143
02:12:39,7E615CE0,0,0,51,0,0,143
02:12:55,7E615EE0,0,0,51,0,0,142
02:13:03,7E615FE0,0,0,51,0,0,142
02:13:11,7E6160E0,0,0,47,0,0,141
02:13:27,7E6162E0,0,0,47,0,0,141
02:13:43,7E6164E0,0,0,47,0,0,141
02:13:59,7E6166E0,0,0,47,0,0,141
02:14:07,7E6167E0,0,0,47,0,0,141
02:14:15,7E6168E0,0,0,51,0,0,142
02:14:31,7E616AE0,0,0,51,0,0,142
02:14:47,7E616CE0,0,0,55,0,0,143
02:15:03,7E616EE0,0,0,55,0,0,143
02:15:19,7E6170E0,0,0,56,0,0,144
02:15:35,7E6172E0,0,0,56,0,0,144
02:15:51,7E6174E0,0,0,48,0,0,144
02:16:07,7E6176E0,0,0,48,0,0,145
02:16:15,7E6177E0,0,0,48,0,0,145
02:16:23,7E6178E0,0,0,54,0,0,145
02:16:39,7E617AE0,0,0,54,0,0,145
02:16:55,7E617CE0,0,0,55,0,0,146
02:17:11,7E617EE0,0,0,55,0,0,146
02:17:19,7E617FE0,0,0,55,0,0,146
02:17:27,7E6180E0,0,0,53,0,0,146
02:17:43,7E6182E0,0,0,53,0,0,146
02:17:59,7E6184E0,0,0,55,0,0,145
02:18:15,7E6186E0,0,0,55,0,0,144
02:18:23,7E6187E0,0,0,55,0,0,144
02:18:31,7E6188E0,0,0,48,0,0,144
02:18:47,7E618AE0,0,0,48,0,0,143
02:19:03,7E618CE0,0,0,47,0,0,143
02:19:19,7E618EE0,0,0,47,0,0,142
02:19:35,7E6190E0,0,0,55,0,0,141
02:19:51,7E6192E0,0,0,55,0,0,141
02:20:07,7E6194E0,0,0,48,0,0,141
02:20:23,7E6196E0,0,0,48,0,0,141
02:20:31,7E6197E0,0,0,48,0,0,142
02:20:39,7E6198E0,0,0,55,0,0,142
02:20:55,7E619AE0,0,0,55,0,0,142
02:21:11,7E619CE0,0,0,56,0,0,143
02:21:27,7E619EE0,0,0,56,0,0,143
02:21:35,7E619FE0,0,0,56,0,0,144
02:21:43,7E61A0E0,0,0,49,0,0,144
02:21:59,7E61A2E0,0,0,49,0,0,144
02:22:15,7E61A4E0,0,0,53,0,0,144
02:22:31,7E61A6E0,0,0,53,0,0,145
02:22:39,7E61A7E0,0,0,53,0,0,145
02:22:47,7E61A8E0,0,0,54,0,0,145
02:23:03,7E61AAE0,0,0,54,0,0,145
02:23:19,7E61ACE0,0,0,52,0,0,146
02:23:35,7E61AEE0,0,0,52,0,0,146
02:23:51,7E61B0E0,0,0,54,0,0,146
02:24:07,7E61B2E0,0,0,54,0,0,145
02:24:23,7E61B4E0,0,0,50,0,0,145
02:24:39,7E61B6E0,0,0,50,0,0,144
02:24:47,7E61B7E0,0,0,50,0,0,144
02:24:55,7E61B8E0,0,0,51,0,0,143
02:25:11,7E61BAE0,0,0,51,0,0,143
02:25:27,7E61BCE0,0,0,52,0,0,142
02:25:43,7E61BEE0,0,0,52,0,0,142
02:25:51,7E61BFE0,0,0,52,0,0,142
02:25:59,7E61C0E0,0,0,50,0,0,141
02:26:15,7E61C2E0,0,0,50,0,0,141
02:26:31,7E61C4E0,0,0,49,0,0,141
02:26:47,7E61C6E0,0,0,49,0,0,141
02:26:55,7E61C7E0,0,0,49,0,0,142
02:27:03,7E61C8E0,0,0,53,0,0,142
02:27:19,7E61CAE0,0,0,53,0,0,143
02:27:35,7E61CCE0,0,0,46,0,0,143
02:27:51,7E61CEE0,0,0,46,0,0,144
02:28:07,7E61D0E0,0,0,56,0,0,144
02:28:23,7E61D2E0,0,0,56,0,0,144
02:28:39,7E61D4E0,0,0,50,0,0,144
02:28:55,7E61D6E0,0,0,50,0,0,145
02:29:03,7E61D7E0,0,0,50,0,0,145
02:29:11,7E61D8E0,0,0,48,0,0,145
02:29:27,7E61DAE0,0,0,48,0,0,146
02:29:43,7E61DCE0,0,0,49,0,0,146
02:29:59,7E61DEE0,0,0,49,0,0,146
02:30:07,7E61DFE0,0,0,49,0,0,146
02:30:15,7E61E0E0,0,0,55,0,0,146
02:30:31,7E61E2E0,0,0,55,0,0,145
02:30:47,7E61E4E0,0,0,51,0,0,144
02:31:03,7E61E6E0,0,0,51,0,0,144
02:31:11,7E61E7E0,0,0,51,0,0,143
02:31:19,7E61E8E0,0,0,55,0,0,143
02:31:35,7E61EAE0,0,0,55,0,0,143
02:31:51,7E61ECE0,0,0,55,0,0,142
02:32:07,7E61EEE0,0,0,55,0,0,142
02:32:23,7E61F0E0,0,0,49,0,0,141
02:32:39,7E61F2E0,0,0,49,0,0,141
02:32:55,7E61F4E0,0,0,52,0,0,141
02:33:11,7E61F6E0,0,0,52,0,0,142
02:33:19,7E61F7E0,0,0,52,0,0,142
02:33:27,7E61F8E0,0,0,46,0,0,142
02:33:43,7E61FAE0,0,0,46,0,0,143
02:33:59,7E61FCE0,0,0,53,0,0,143
02:34:15,7E61FEE0,0,0,53,0,0,144
02:34:23,7E61FFE0,0,0,53,0,0,144
02:34:31,7E6200E0,0,0,50,0,0,144
02:34:47,7E6202E0,0,0,50,0,0,144
02:35:03,7E6204E0,0,0,52,0,0,145
02:35:19,7E6206E0,0,0,52,0,0,145
02:35:27,7E6207E0,0,0,52,0,0,145
02:35:35,7E6208E0,0,0,55,0,0,145
02:35:51,7E620AE0,0,0,55,0,0,146
02:36:07,7E620CE0,0,0,55,0,0,146
02:36:23,7E620EE0,0,0,55,0,0,146
02:36:39,7E6210E0,0,0,55,0,0,145
02:36:55,7E6212E0,0,0,55,0,0,145
02:37:11,7E6214E0,0,0,56,0,0,144
02:37:27,7E6216E0,0,0,56,0,0,143
02:37:35,7E6217E0,0,0,56,0,0,143
02:37:43,7E6218E0,0,0,51,0,0,142
02:37:59,7E621AE0,0,0,51,0,0,142
02:38:15,7E621CE0,0,0,50,0,0,141